Погода в Шаверках

Россия / Республика Мордовия     54°19′26″N   43°46′17″E
темп.,
°C
ветер,
м/с
пор.,
м/с
влажн.,
%
обл.,
%
осадки,
мм/ч
давл.,
гПа
погр.,
м
10 апреля, сб
сб1000:00+1ссв23857 0.0 102758
03:00+1св2385100 0.0 102841
06:00+1св258399 0.0 1029118
09:00+5всв4664100 0.0 1028630
12:00+7всв4557100 0.0 1027895
15:00+7всв5658100 0.0 1026798
18:00+5всв467698 0.0 1026513
21:00+3св369055 0.0 1026324
11 апреля, вс
вс1100:00+2с3696100 0.0 1026249
03:00+2с4795100 0.0 1027322
06:00+2ссв379231 0.0 1029296
09:00+6ссв4669100 0.0 1030453
12:00+10св4647100 0.0 1030797
15:00+11св5641100 0.0 1030878
18:00+8всв5861100 0.0 1031492
21:00+6всв3982100 0.3 1032355
12 апреля, пн
пн1200:00+5св51193100 1.0 1031349
03:00+5всв3895100 1.3 1032301
06:00+6всв61494100 0.6 1031330
09:00+9в5981100 0.6 1032449
12:00+14вюв6865100 0.0 1031627
15:00+17вюв5860100 0.0 1030817
18:00+14в4976100 0.0 1029255
21:00+11вюв3989100 0.0 1030155
13 апреля, вт
вт1300:00+9юв3786100 0.0 1030114
03:00+8юв378634 0.0 1030115
06:00+7юв388132 0.0 1030129
09:00+12ююв595699 0.0 1029420
12:00+17ююв564098 0.0 1028890
15:00+18ююв563539 0.0 10271265
18:00+15юв365122 0.0 1026109
21:00+11ююв310620 0.0 1027169
14 апреля, ср
ср1400:00+9ююв39685 0.0 1027138
03:00+8ююв36715 0.0 102782
06:00+7ююв37717 0.0 1026109
09:00+13ююв4854100 0.0 1025341
12:00+18ююв5740100 0.0 1024955
15:00+19ююв563453 0.0 10231493
18:00+16ююв364958 0.0 1022135
21:00+11ююв386174 0.0 1022114